Tracking 17138 objects as of 8-July-2015
HD Live streaming from Space Station

ARIANE 5 R/B

Track ARIANE 5 R/B now!
ARIANE 5 R/B is classified as:


NORAD ID: 29275
Int'l Code: 2006-033D
Perigee: 294.4 km
Apogee: 33,622.6 km
Inclination: 5.8 °
Period: 591.0 minutes
Semi major axis: 23329 km
RCS: 37.7588 m2 (large)
Launch date: August 11, 2006
Source: France (FR)

Note: This is a ROCKET BODY
Your satellite tracking list
Your tracking list is empty





NASA's NSSDC Master Catalog

Two Line Element Set (TLE):
1 29275U 06033D   15187.55719456  .00000865  00000-0  52968-3 0  9993
2 29275 005.8385 167.3160 7142914 053.3171 018.2671 02.43637798 76386

Source of the keplerian elements: AFSPC

N2YO: 281